OBJECT A, 65945

Orbit data source: Space-Track

You're viewing an Uncataloged Satellite

Recently launched and/or uncataloged satellites may have evolving metadata. Metadata may include but not limited to: Owner, Maufacturer, Bus, Motor, and Mission.

OBJECT A, 65945 is a satellite owned by CAST (CN) in LEO that was launched on Mon, 13 Oct 2025 UTC via a CHANG ZHENG 2D launch vehicle from the Jiuquan Satellite Launch Center, China (JSC). Unknown objects in Earth's orbit typically refer to objects detected orbiting the Earth but have not yet been identified or cataloged. These objects could be anything from previously untracked satellites, spent rocket stages, debris from satellite collisions, or even natural meteoroids temporarily captured by Earth's gravity.

Loading next visibility...
Identifier
65945, 2025-227A
Orbit
LEO
Country
Flag of CNCN / PRC
Related business
Manufacturer
CAST
Mission
Operational spacecraft
Bus & Motor
SY30, Unknown motor
Mass
~1,000 kg wet, ~1,000 kg dry
Launch date (UTC)
2025-10-13 (5 days ago)
Launch vehicle
CHANG ZHENG 2D
Launch site
Jiuquan Satellite Launch Center, China (JSC)
Object type
Unknown
Shape & HBR
Unknown
Radar Cross Section
RCS unknown

Expand to show TLE details & history
Last TLE update: 7 hours ago

TLE from 7 hours ago
0 OBJECT A
1 65945U 25227A   25290.80515056  .00009515  00000-0  43926-3 0  9992
2 65945  80.0018  96.1165 0011192 253.9339 106.0655 15.20070888   679
Epoch: 2025-10-17T19:19Z
TLE epoch observation values (Epoch: 2025-10-17T19:19:25.008Z)
Latitude
-0.00007°
Longitude
139.71704°
Altitude
510.771 km
Speed
7.607 km/s
True Right ascension
06h 24m 27s
True Declination
0° 00' 00"
Sunlit
Object was in daylight at epoch
Visualization orbit readout
Latitude
Unknown
Longitude
Unknown
Altitude
Unknown
Speed
Unknown
Apparent Right ascension
Unknown
Apparent Declination
Unknown
Sunlit
N/A
Visualization observer readout
Local Sidereal Time
21:30:25
Azimuth
Unknown
Elevation
Unknown
Doppler factor
Unknown
Orbital elements
Apogee altitude
510.423 km
Perigee altitude
495.021 km
Semi-major axis
6,880.859 km
Eccentricity
0.00112
Inclination
80.0018°
RAAN
96.1165°
Arg. of periapsis
253.9339°
True anomaly
106.18869°
Mean anomaly
106.0655°
Eccentric anomaly
106.1271°
Mean motion
3.80259 °/min
Orbital period
94.67 mins
BSTAR
0.00043926
Loading maneuver chart data...
Computing Atmospheric mass density...
Loading historical data...
Loading historical data...
Loading historical data...
Loading historical data...
Loading historical data...
Loading historical data...
Loading historical data...
Other satellites on launch #227 in the year 2025 (2025-10-13 UTC)

Documentation

Showing up to 5 results
|